Chehalis, WA
on Thursday, January 24, 2013

Thursday
Previous Day Next Day
Daily Summary
 ActualAverage (KOLM)Record (KOLM)
Temperature
Mean Temperature °F / °C 40°F / 4°C  
Max Temperature 46°F / 8°C 47°F / 8°C 56°F / 13°C (1951)
Min Temperature 35°F / 2°C 34°F / 1°C 1°F / -17°C (1949)
Degree Days
Heating Degree Days 24 25  
Month to date heating degree days 610  
Since 1 July heating degree days 2880  
Cooling Degree Days 0 0  
Month to date cooling degree days 0  
Year to date cooling degree days 0  
Moisture
Dew Point 37°F / 3°C   
Average Humidity 89    
Maximum Humidity 100    
Minimum Humidity 71    
Precipitation
Precipitation 0.06 in / 1.52 cm 0.24 in / 6.10 cm 2.47 in / 6.27 cm (2002)
Month to date precipitation 6.21  
Year to date precipitation 6.21  
Wind
Wind Speed 6 mph / 10 km/h   
Max Wind Speed 10 mph / 16 km/h   
Max Gust Speed mph / km/h   
Visibility 8 miles / 12 kilometers   
Events Rain   

Key: T is trace of precipitation, MM is missing value
Source: NWS Daily Summary
Time(PST)TemperatureDew PointHumidity Pressure Visibility Wind DirectionWind SpeedGust SpeedPrecipitationEvents Conditions
12:15 AM 37.4°F / 3.0°C 35.6°F / 2.0°C 93% 30.20 in / 1022.6 hPa 7.0 miles / 11.3 kilometers South 6.9 mph / 11.1 km/h - N/A   Overcast
12:35 AM 37.4°F / 3.0°C 35.6°F / 2.0°C 93% 30.20 in / 1022.6 hPa 7.0 miles / 11.3 kilometers South 5.8 mph / 9.3 km/h - N/A   Overcast
12:55 AM 35.6°F / 2.0°C 35.6°F / 2.0°C 100% 30.21 in / 1022.9 hPa 7.0 miles / 11.3 kilometers SSW 5.8 mph / 9.3 km/h - N/A   Overcast
1:15 AM 35.6°F / 2.0°C 35.6°F / 2.0°C 100% 30.22 in / 1023.2 hPa 7.0 miles / 11.3 kilometers SSW 4.6 mph / 7.4 km/h - N/A   Overcast
1:35 AM 35.6°F / 2.0°C 35.6°F / 2.0°C 100% 30.22 in / 1023.2 hPa 7.0 miles / 11.3 kilometers South 5.8 mph / 9.3 km/h - N/A   Overcast
1:55 AM 35.6°F / 2.0°C 33.8°F / 1.0°C 93% 30.22 in / 1023.2 hPa 7.0 miles / 11.3 kilometers South 6.9 mph / 11.1 km/h - N/A   Scattered Clouds
2:15 AM 35.6°F / 2.0°C 33.8°F / 1.0°C 93% 30.22 in / 1023.2 hPa 7.0 miles / 11.3 kilometers South 5.8 mph / 9.3 km/h - N/A   Partly Cloudy
2:35 AM 35.6°F / 2.0°C 33.8°F / 1.0°C 93% 30.23 in / 1023.6 hPa 7.0 miles / 11.3 kilometers SSW 5.8 mph / 9.3 km/h - N/A   Partly Cloudy
2:55 AM 35.6°F / 2.0°C 33.8°F / 1.0°C 93% 30.24 in / 1023.9 hPa 7.0 miles / 11.3 kilometers SSW 5.8 mph / 9.3 km/h - N/A   Mostly Cloudy
3:15 AM 35.6°F / 2.0°C 33.8°F / 1.0°C 93% 30.24 in / 1023.9 hPa 5.0 miles / 8.0 kilometers SSW 5.8 mph / 9.3 km/h - N/A   Overcast
3:35 AM 35.6°F / 2.0°C 33.8°F / 1.0°C 93% 30.23 in / 1023.6 hPa 3.0 miles / 4.8 kilometers South 8.1 mph / 13.0 km/h - N/A   Overcast
3:55 AM 35.6°F / 2.0°C 33.8°F / 1.0°C 93% 30.23 in / 1023.6 hPa 3.0 miles / 4.8 kilometers South 6.9 mph / 11.1 km/h - N/A   Overcast
4:15 AM 35.6°F / 2.0°C 35.6°F / 2.0°C 100% 30.22 in / 1023.2 hPa 3.0 miles / 4.8 kilometers South 4.6 mph / 7.4 km/h - N/A   Overcast
4:35 AM 35.6°F / 2.0°C 35.6°F / 2.0°C 100% 30.22 in / 1023.2 hPa 4.0 miles / 6.4 kilometers South 5.8 mph / 9.3 km/h - N/A   Overcast
4:55 AM 35.6°F / 2.0°C 35.6°F / 2.0°C 100% 30.23 in / 1023.6 hPa 5.0 miles / 8.0 kilometers South 5.8 mph / 9.3 km/h - N/A   Overcast
5:15 AM 35.6°F / 2.0°C 35.6°F / 2.0°C 100% 30.23 in / 1023.6 hPa 5.0 miles / 8.0 kilometers South 5.8 mph / 9.3 km/h - N/A   Overcast
5:35 AM 35.6°F / 2.0°C 35.6°F / 2.0°C 100% 30.23 in / 1023.6 hPa 5.0 miles / 8.0 kilometers South 5.8 mph / 9.3 km/h - N/A   Overcast
5:55 AM 35.6°F / 2.0°C 35.6°F / 2.0°C 100% 30.24 in / 1023.9 hPa 5.0 miles / 8.0 kilometers SSW 4.6 mph / 7.4 km/h - N/A   Overcast
6:15 AM 35.6°F / 2.0°C 33.8°F / 1.0°C 93% 30.23 in / 1023.6 hPa 6.0 miles / 9.7 kilometers South 3.5 mph / 5.6 km/h - N/A   Overcast
6:35 AM 35.6°F / 2.0°C 33.8°F / 1.0°C 93% 30.22 in / 1023.2 hPa 7.0 miles / 11.3 kilometers SSW 4.6 mph / 7.4 km/h - N/A   Overcast
6:55 AM 35.6°F / 2.0°C 33.8°F / 1.0°C 93% 30.21 in / 1022.9 hPa 7.0 miles / 11.3 kilometers Calm Calm - N/A   Overcast
7:15 AM 35.6°F / 2.0°C 33.8°F / 1.0°C 93% 30.21 in / 1022.9 hPa 7.0 miles / 11.3 kilometers SW 4.6 mph / 7.4 km/h - N/A   Overcast
7:35 AM 35.6°F / 2.0°C 33.8°F / 1.0°C 93% 30.21 in / 1022.9 hPa 8.0 miles / 12.9 kilometers SW 3.5 mph / 5.6 km/h - N/A   Overcast
7:55 AM 35.6°F / 2.0°C 33.8°F / 1.0°C 93% 30.21 in / 1022.9 hPa 8.0 miles / 12.9 kilometers SSW 3.5 mph / 5.6 km/h - N/A   Overcast
8:15 AM 35.6°F / 2.0°C 35.6°F / 2.0°C 100% 30.20 in / 1022.6 hPa 8.0 miles / 12.9 kilometers SSW 3.5 mph / 5.6 km/h - N/A   Overcast
8:35 AM 35.6°F / 2.0°C 35.6°F / 2.0°C 100% 30.20 in / 1022.6 hPa 7.0 miles / 11.3 kilometers Calm Calm - N/A   Overcast
8:55 AM 37.4°F / 3.0°C 35.6°F / 2.0°C 93% 30.20 in / 1022.6 hPa 8.0 miles / 12.9 kilometers Calm Calm - N/A   Overcast
9:15 AM 37.4°F / 3.0°C 35.6°F / 2.0°C 93% 30.20 in / 1022.6 hPa 9.0 miles / 14.5 kilometers SSW 3.5 mph / 5.6 km/h - N/A   Overcast
9:35 AM 39.2°F / 4.0°C 35.6°F / 2.0°C 87% 30.20 in / 1022.6 hPa 4.0 miles / 6.4 kilometers SSW 5.8 mph / 9.3 km/h - N/A   Mostly Cloudy
9:55 AM 39.2°F / 4.0°C 35.6°F / 2.0°C 87% 30.19 in / 1022.2 hPa 10.0 miles / 16.1 kilometers SSW 4.6 mph / 7.4 km/h - 0.01 in / 0.3 cm   Partly Cloudy
10:15 AM 39.2°F / 4.0°C 37.4°F / 3.0°C 93% 30.19 in / 1022.2 hPa 10.0 miles / 16.1 kilometers SSW 4.6 mph / 7.4 km/h - N/A   Partly Cloudy
10:35 AM 41.0°F / 5.0°C 37.4°F / 3.0°C 87% 30.18 in / 1021.9 hPa 10.0 miles / 16.1 kilometers South 3.5 mph / 5.6 km/h - N/A   Partly Cloudy
10:55 AM 41.0°F / 5.0°C 37.4°F / 3.0°C 87% 30.19 in / 1022.2 hPa 10.0 miles / 16.1 kilometers Calm Calm - N/A   Clear
11:15 AM 41.0°F / 5.0°C 37.4°F / 3.0°C 87% 30.18 in / 1021.9 hPa 10.0 miles / 16.1 kilometers Calm Calm - N/A   Clear
11:35 AM 44.6°F / 7.0°C 39.2°F / 4.0°C 81% 30.17 in / 1021.6 hPa 10.0 miles / 16.1 kilometers SSW 3.5 mph / 5.6 km/h - N/A   Clear
11:55 AM 44.6°F / 7.0°C 39.2°F / 4.0°C 81% 30.17 in / 1021.6 hPa 10.0 miles / 16.1 kilometers South 4.6 mph / 7.4 km/h - N/A   Clear
12:15 PM 46.4°F / 8.0°C 39.2°F / 4.0°C 76% 30.15 in / 1020.9 hPa 10.0 miles / 16.1 kilometers South 6.9 mph / 11.1 km/h - N/A   Clear
12:35 PM 46.4°F / 8.0°C 37.4°F / 3.0°C 71% 30.13 in / 1020.2 hPa 10.0 miles / 16.1 kilometers South 6.9 mph / 11.1 km/h - N/A   Clear
12:55 PM 46.4°F / 8.0°C 37.4°F / 3.0°C 71% 30.12 in / 1019.9 hPa 10.0 miles / 16.1 kilometers SSW 6.9 mph / 11.1 km/h - N/A   Clear
1:15 PM 46.4°F / 8.0°C 37.4°F / 3.0°C 71% 30.12 in / 1019.9 hPa 10.0 miles / 16.1 kilometers SSW 5.8 mph / 9.3 km/h - N/A   Clear
1:35 PM 46.4°F / 8.0°C 37.4°F / 3.0°C 71% 30.12 in / 1019.9 hPa 10.0 miles / 16.1 kilometers South 5.8 mph / 9.3 km/h - N/A   Clear
1:55 PM 46.4°F / 8.0°C 37.4°F / 3.0°C 71% 30.10 in / 1019.2 hPa 10.0 miles / 16.1 kilometers SE 5.8 mph / 9.3 km/h - N/A   Clear
2:15 PM 46.4°F / 8.0°C 37.4°F / 3.0°C 71% 30.10 in / 1019.2 hPa 10.0 miles / 16.1 kilometers South 5.8 mph / 9.3 km/h - N/A   Clear
2:35 PM 46.4°F / 8.0°C 37.4°F / 3.0°C 71% 30.10 in / 1019.2 hPa 10.0 miles / 16.1 kilometers South 5.8 mph / 9.3 km/h - N/A   Scattered Clouds
2:55 PM 46.4°F / 8.0°C 37.4°F / 3.0°C 71% 30.09 in / 1018.8 hPa 10.0 miles / 16.1 kilometers SSW 4.6 mph / 7.4 km/h - N/A   Mostly Cloudy
3:15 PM 46.4°F / 8.0°C 37.4°F / 3.0°C 71% 30.09 in / 1018.8 hPa 10.0 miles / 16.1 kilometers SW 4.6 mph / 7.4 km/h - N/A   Overcast
3:35 PM 44.6°F / 7.0°C 37.4°F / 3.0°C 76% 30.10 in / 1019.2 hPa 10.0 miles / 16.1 kilometers SW 4.6 mph / 7.4 km/h - N/A   Overcast
3:55 PM 44.6°F / 7.0°C 37.4°F / 3.0°C 76% 30.10 in / 1019.2 hPa 10.0 miles / 16.1 kilometers South 3.5 mph / 5.6 km/h - N/A   Overcast
4:15 PM 44.6°F / 7.0°C 39.2°F / 4.0°C 81% 30.10 in / 1019.2 hPa 10.0 miles / 16.1 kilometers SSE 3.5 mph / 5.6 km/h - N/A   Overcast
4:35 PM 44.6°F / 7.0°C 39.2°F / 4.0°C 81% 30.10 in / 1019.2 hPa 7.0 miles / 11.3 kilometers SSW 4.6 mph / 7.4 km/h - N/A   Mostly Cloudy
4:55 PM 42.8°F / 6.0°C 39.2°F / 4.0°C 87% 30.11 in / 1019.5 hPa 9.0 miles / 14.5 kilometers SW 4.6 mph / 7.4 km/h - 0.01 in / 0.3 cm Rain Light Rain
5:15 PM 42.8°F / 6.0°C 39.2°F / 4.0°C 87% 30.11 in / 1019.5 hPa 8.0 miles / 12.9 kilometers South 4.6 mph / 7.4 km/h - N/A Rain Light Rain
5:35 PM 42.8°F / 6.0°C 39.2°F / 4.0°C 87% 30.10 in / 1019.2 hPa 8.0 miles / 12.9 kilometers SSE 5.8 mph / 9.3 km/h - N/A Rain Light Rain
5:55 PM 42.8°F / 6.0°C 39.2°F / 4.0°C 87% 30.10 in / 1019.2 hPa 6.0 miles / 9.7 kilometers South 9.2 mph / 14.8 km/h - 0.01 in / 0.3 cm Rain Light Rain
6:15 PM 41.0°F / 5.0°C 39.2°F / 4.0°C 93% 30.09 in / 1018.8 hPa 6.0 miles / 9.7 kilometers South 9.2 mph / 14.8 km/h - N/A Rain Light Rain
6:35 PM 41.0°F / 5.0°C 39.2°F / 4.0°C 93% 30.10 in / 1019.2 hPa 10.0 miles / 16.1 kilometers SSW 8.1 mph / 13.0 km/h - N/A   Overcast
6:55 PM 41.0°F / 5.0°C 39.2°F / 4.0°C 93% 30.09 in / 1018.8 hPa 7.0 miles / 11.3 kilometers South 8.1 mph / 13.0 km/h - N/A Rain Light Rain
7:15 PM 41.0°F / 5.0°C 39.2°F / 4.0°C 93% 30.10 in / 1019.2 hPa 3.0 miles / 4.8 kilometers South 6.9 mph / 11.1 km/h - N/A Rain Light Rain
7:35 PM 41.0°F / 5.0°C 39.2°F / 4.0°C 93% 30.10 in / 1019.2 hPa 3.0 miles / 4.8 kilometers South 5.8 mph / 9.3 km/h - N/A Rain Light Rain
7:55 PM 41.0°F / 5.0°C 41.0°F / 5.0°C 100% 30.09 in / 1018.8 hPa 4.0 miles / 6.4 kilometers South 5.8 mph / 9.3 km/h - N/A Rain Light Rain
8:15 PM 41.0°F / 5.0°C 41.0°F / 5.0°C 100% 30.09 in / 1018.8 hPa 5.0 miles / 8.0 kilometers SSE 8.1 mph / 13.0 km/h - N/A Rain Light Rain
8:35 PM 41.0°F / 5.0°C 41.0°F / 5.0°C 100% 30.09 in / 1018.8 hPa 7.0 miles / 11.3 kilometers South 6.9 mph / 11.1 km/h - 0.01 in / 0.3 cm Rain Light Rain
8:55 PM 41.0°F / 5.0°C 41.0°F / 5.0°C 100% 30.09 in / 1018.8 hPa 7.0 miles / 11.3 kilometers South 6.9 mph / 11.1 km/h - 0.01 in / 0.3 cm   Overcast
9:15 PM 42.8°F / 6.0°C 41.0°F / 5.0°C 93% 30.09 in / 1018.8 hPa 5.0 miles / 8.0 kilometers South 8.1 mph / 13.0 km/h - 0.01 in / 0.3 cm Rain Light Rain
9:35 PM 42.8°F / 6.0°C 41.0°F / 5.0°C 93% 30.09 in / 1018.8 hPa 5.0 miles / 8.0 kilometers South 9.2 mph / 14.8 km/h - 0.02 in / 0.5 cm Rain Light Rain
9:55 PM 42.8°F / 6.0°C 41.0°F / 5.0°C 93% 30.09 in / 1018.8 hPa 8.0 miles / 12.9 kilometers South 9.2 mph / 14.8 km/h - 0.02 in / 0.5 cm Rain Light Rain
10:15 PM 42.8°F / 6.0°C 41.0°F / 5.0°C 93% 30.09 in / 1018.8 hPa 10.0 miles / 16.1 kilometers South 9.2 mph / 14.8 km/h - N/A Rain Light Rain
10:35 PM 42.8°F / 6.0°C 41.0°F / 5.0°C 93% 30.09 in / 1018.8 hPa 10.0 miles / 16.1 kilometers South 9.2 mph / 14.8 km/h - N/A   Overcast
10:55 PM 44.6°F / 7.0°C 41.0°F / 5.0°C 87% 30.08 in / 1018.5 hPa 10.0 miles / 16.1 kilometers South 10.4 mph / 16.7 km/h - N/A   Overcast
11:15 PM 44.6°F / 7.0°C 41.0°F / 5.0°C 87% 30.09 in / 1018.8 hPa 10.0 miles / 16.1 kilometers South 9.2 mph / 14.8 km/h - N/A   Overcast
11:55 PM 44.6°F / 7.0°C 41.0°F / 5.0°C 87% 30.09 in / 1018.8 hPa 8.0 miles / 12.9 kilometers South 6.9 mph / 11.1 km/h - N/A   Overcast
Moon Phase
Jan. 24 Jan. 26 Feb. 03 Feb. 10 Feb. 17
Sunrise:07:44 AM (PST) Moon Rise:03:09 PM (PST)1/24
Sunset:05:04 PM (PST) Moon Set:05:48 AM (PST)1/24

Copyright © 2014 The Weather Underground, Inc.